Location: �chenoz-la-M�line
(47.6009°N, 6.1354°E)
Time: 12:33:35
(UTC+00:00)

USA 238 - Pass Details

Date: 27 January 2021
Orbit: 996 x 1216 km, 63.4° (Epoch: 28 February)

Event Time Altitude Azimuth Distance (km) Brightness Sun altitude
Rises 05:51:10 0° 231° (SW) 3,730 6.2 -13.0°
Reaches altitude 10° 05:53:45 10° 235° (SW) 2,800 5.5 -12.6°
Maximum altitude 06:00:17 63° 316° (NW) 1,161 3.7 -11.5°
Drops below altitude 10° 06:07:11 10° 38° (NE) 2,949 6.3 -10.4°
Sets 06:09:59 0° 41° (NE) 3,943 7.0 -9.9°
